[[{"header":{"parameterUnit":"m.s-1","parameterCategory":1,"la1":30.2991,"la2":30.254,"lo1":-89.0895,"lo2":-89.0444,"dy":0.0017,"dx":0.0017,"nx":28,"ny":28,"refTime":"2025-08-22T21:00:00:Z","depth":0,"parameterNumber":2,"parameterNumberName":"U-component_of_WINDS"},"data":[0,0,0,0,0,0,0,0,0,0,0,0,0,0,0,0,0,0,0,0,0,0,0,0,0,0,0,0,0,0,0,0,0,0,0,0,0,0,0,0,0,0,0,0,0,0,0,0,0,0,0,0,0,0,0,0,0,0,-2.0602,-2.0602,0,-2.0616,-2.0616,-2.0616,-2.0564,-2.0563,-2.0561,-2.056,-2.0574,-2.0576,-2.0578,0,0,0,0,0,0,0,0,0,0,0,0,0,-2.0529,-2.0531,-2.0602,-2.0602,-2.0602,-2.0616,-2.0616,-2.0616,-2.0565,-2.0563,-2.0561,-2.0559,-2.0573,-2.0575,-2.0578,0,0,0,0,0,0,0,0,0,0,0,0,0,-2.0554,-2.0532,-2.0602,-2.0578,-2.0576,-2.0616,-2.0616,-2.0616,-2.0565,-2.0563,-2.056,-2.0558,-2.0573,-2.0575,-2.0578,-2.0641,0,0,-2.0586,-2.0587,0,0,0,0,0,0,0,0,-2.0553,-2.0557,-2.0581,-2.058,-2.0578,-2.0586,-2.0596,-2.0625,-2.0566,-2.0569,-2.056,-2.0557,-2.058,-2.0582,-2.0589,-2.0642,-2.0642,-2.0587,-2.0588,-2.0589,-2.059,0,0,0,0,0,0,0,-2.0551,-2.0556,-2.0607,-2.0582,-2.0579,-2.0566,-2.0567,-2.0601,-2.0587,-2.0569,-2.0565,-2.0567,-2.0578,-2.0587,-2.0589,-2.0643,-2.0586,-2.0589,-2.0591,-2.0592,-2.0746,-2.0748,0,0,0,0,0,0,-2.0552,-2.0555,-2.0607,-2.0608,-2.0559,-2.057,-2.0571,-2.0586,-2.0587,-2.0585,-2.0569,-2.0565,-2.0584,-2.0586,-2.059,-2.0663,-2.0589,-2.0592,-2.0593,-2.0744,-2.0747,-2.0749,0,0,0,0,0,0,-2.0551,-2.0558,-2.0606,-2.058,-2.0585,-2.0573,-2.0591,-2.0587,-2.0596,-2.0587,-2.0585,-2.0581,-2.0582,-2.0586,-2.0628,-2.0662,-2.0593,-2.0596,-2.0741,-2.0745,-2.0748,-2.081,0,0,0,0,0,0,-2.0549,-2.0557,-2.0581,-2.0581,-2.0587,-2.0645,-2.0593,-2.0589,-2.0601,-2.0595,-2.0597,-2.0595,-2.058,-2.0625,-2.0631,-2.0665,-2.0598,-2.0738,-2.0742,-2.0747,-2.0804,-2.0815,-2.0824,0,0,0,0,0,-2.0547,-2.0598,-2.0583,-2.0589,-2.0617,-2.0647,-2.065,-2.0632,-2.0604,-2.0627,-2.0622,-2.0595,-2.0658,-2.063,-2.0636,-2.0671,-2.0735,-2.0741,-2.0746,-2.08,-2.0813,-2.0824,0,0,0,0,0,0,-2.0603,-2.0598,-2.0581,-2.0634,-2.0641,-2.0638,-2.0668,-2.0646,-2.0662,-2.0656,-2.0633,-2.0634,-2.068,-2.068,-2.0649,-2.0732,-2.0692,-2.0699,-2.073,-2.0742,-2.0752,-2.075,-2.06,0,0,0,0,0,-2.0621,-2.0647,-2.0641,-2.0688,-2.0693,-2.068,-2.0693,-2.0678,-2.0685,-2.0687,-2.0685,-2.0693,-2.0714,-2.0728,-2.0747,-2.0805,-2.0804,-2.0832,-2.0842,-2.085,-2.0856,-2.0885,-2.0897,-2.0768,-2.0768,-2.0767,0,0,-2.066,-2.066,-2.0678,-2.07,-2.0704,-2.073,-2.0683,-2.0713,-2.0732,-2.0692,-2.0731,-2.073,-2.0737,-2.0787,-2.0809,-2.0788,-2.0892,-2.0857,-2.0864,-2.0865,-2.0892,-2.0904,-2.0915,-2.0771,-2.0771,-2.077,0,0,-2.0743,-2.0747,-2.0786,-2.0791,-2.0798,-2.0789,-2.0798,-2.0799,-2.0796,-2.0836,-2.0806,-2.0828,-2.0866,-2.0871,-2.0879,-2.0965,-2.0941,-2.0972,-2.1022,-2.1051,-2.1061,-2.107,-2.1099,-2.111,-2.0978,-2.0978,-2.0979,0,-2.079,-2.0828,-2.0808,-2.084,-2.085,-2.0816,-2.0855,-2.0861,-2.0874,-2.0881,-2.0858,-2.0904,-2.0906,-2.0957,-2.0977,-2.0985,-2.0995,-2.0971,-2.1061,-2.107,-2.1078,-2.1106,-2.1117,-2.0982,-2.0982,-2.0981,-2.0981,0,-2.0885,-2.0912,-2.0943,-2.0956,-2.097,-2.1005,-2.099,-2.1007,-2.0991,-2.0985,-2.1025,-2.1027,-2.1045,-2.1056,-2.1041,-2.1104,-2.1091,-2.1066,-2.1024,-2.1094,-2.112,-2.113,-2.0987,-2.0986,-2.0985,-2.0984,0,0,-2.1002,-2.1004,-2.1016,-2.1021,-2.1026,-2.1047,-2.1081,-2.1099,-2.1112,-2.1123,-2.115,-2.1182,-2.1158,-2.1167,-2.1153,-2.1178,-2.1245,-2.1149,-2.1149,-2.1166,-2.1313,-2.1331,-2.1343,-2.1229,-2.1231,-2.1233,-2.1311,0,-2.1083,-2.114,-2.1124,-2.1181,-2.1205,-2.1173,-2.1203,-2.1209,-2.1204,-2.1223,-2.1218,-2.1241,-2.1208,-2.1213,-2.1237,-2.1231,-2.1273,-2.1226,-2.1253,-2.1254,-2.1251,-2.1357,-2.1376,-2.145,-2.1321,-2.1323,-2.1324,0,-2.1184,-2.1198,-2.1258,-2.1259,-2.1268,-2.1295,-2.131,-2.1329,-2.1336,-2.133,-2.134,-2.1321,-2.1353,-2.1313,-2.1357,-2.1325,-2.1335,-2.1335,-2.1337,-2.1337,-2.1292,-2.1359,-2.1474,-2.1484,-2.134,-2.1339,-2.1338,0,-2.1262,-2.1296,-2.1336,-2.1342,-2.1344,-2.1363,-2.1365,-2.1369,-2.1381,-2.1394,-2.1401,-2.1418,-2.1427,-2.1441,-2.1426,-2.1398,-2.1472,-2.1431,-2.1467,-2.1467,-2.1483,-2.1481,-2.1599,-2.1492,-2.1492,-2.1492,-2.1492,0,-2.1352,-2.139,-2.1371,-2.1395,-2.1436,-2.1417,-2.1458,-2.1456,-2.146,-2.1483,-2.1457,-2.1479,-2.1459,-2.1479,-2.1468,-2.1506,-2.1511,-2.1506,-2.1502,-2.1508,-2.1508,-2.1513,-2.1506,-2.1495,-2.1494,-2.1494,-2.1493,0,-2.1445,-2.1434,-2.1475,-2.1474,-2.1475,-2.1505,-2.1504,-2.1526,-2.1519,-2.1549,-2.1555,-2.1544,-2.1567,-2.1554,-2.1577,-2.1569,-2.1618,-2.1608,-2.1616,-2.1612,-2.1649,-2.1645,-2.1772,-2.1787,-2.1673,-2.1674,-2.1675,0,-2.1503,-2.1531,-2.1533,-2.1547,-2.155,-2.1573,-2.1584,-2.1567,-2.158,-2.1589,-2.161,-2.1631,-2.1646,-2.1684,-2.1678,-2.1695,-2.1684,-2.1728,-2.1687,-2.1691,-2.1683,-2.1681,-2.1683,-2.1736,-2.1737,-2.1738,-2.1739,0,-2.1606,-2.1599,-2.1617,-2.1633,-2.1648,-2.166,-2.167,-2.1683,-2.1665,-2.1682,-2.1704,-2.1716,-2.174,-2.176,-2.1775,-2.1776,-2.1754,-2.1752,-2.1761,-2.1766,-2.1768,-2.1766,-2.1636,-2.1749,-2.1748,-2.1747,-2.1747,-2.1746,-2.1681,-2.1704,-2.1709,-2.173,-2.1736,-2.1746,-2.1766,-2.1762,-2.1781,-2.1799,-2.1788,-2.1814,-2.1819,-2.1837,-2.1841,-2.1862,-2.1844,-2.1857,-2.186,-2.1864,-2.1868,-2.1767,-2.1865,-2.1864,-2.1864,-2.1864,-2.1863,0,-2.1781,-2.1783,-2.1802,-2.1817,-2.1833,-2.1812,-2.1822,-2.1837,-2.1861,-2.1868,-2.1883,-2.1909,-2.1929,-2.1925,-2.1942,-2.1959,-2.1949,-2.1964,-2.1962,-2.1962,-2.1883,-2.1873,-2.1972,-2.1971,-2.1971,-2.1971,-2.1971,-2.1971,-2.1835,-2.1872,-2.1866,-2.1906,-2.1907,-2.1933,-2.194,-2.1949,-2.1954,-2.1984,-2.2,-2.1998,-2.2,-2.2018,-2.2035,-2.2033,-2.204,-2.2058,-2.2052,-2.1978,-2.1968,-2.1957,-2.1947,-2.206,-2.206,-2.2129,-2.2129,-2.213]},{"header":{"parameterUnit":"m.s-1","parameterCategory":1,"la1":30.2991,"la2":30.254,"lo1":-89.0895,"lo2":-89.0444,"dy":0.0017,"dx":0.0017,"nx":28,"ny":28,"refTime":"2025-08-22T21:00:00:Z","depth":0,"parameterNumber":3,"parameterNumberName":"V-component_of_WINDS"},"data":[0,0,0,0,0,0,0,0,0,0,0,0,0,0,0,0,0,0,0,0,0,0,0,0,0,0,0,0,0,0,0,0,0,0,0,0,0,0,0,0,0,0,0,0,0,0,0,0,0,0,0,0,0,0,0,0,0,0,-1.2723,-1.2722,0,-1.2642,-1.2642,-1.2641,-1.258,-1.2579,-1.2579,-1.2578,-1.249,-1.2488,-1.2486,0,0,0,0,0,0,0,0,0,0,0,0,0,-1.2818,-1.2817,-1.2723,-1.2722,-1.2721,-1.2643,-1.2641,-1.264,-1.258,-1.2579,-1.2579,-1.2578,-1.2491,-1.2488,-1.2486,0,0,0,0,0,0,0,0,0,0,0,0,0,-1.2761,-1.2816,-1.2723,-1.2681,-1.2677,-1.2643,-1.2641,-1.264,-1.258,-1.2579,-1.2578,-1.2578,-1.2491,-1.2489,-1.2486,-1.2485,0,0,-1.2477,-1.2476,0,0,0,0,0,0,0,0,-1.2764,-1.2758,-1.2689,-1.2684,-1.2679,-1.262,-1.2643,-1.2588,-1.258,-1.2617,-1.2578,-1.2577,-1.2534,-1.2527,-1.2514,-1.2481,-1.2477,-1.2477,-1.2475,-1.2474,-1.2474,0,0,0,0,0,0,0,-1.2769,-1.2761,-1.2691,-1.2688,-1.2682,-1.2665,-1.2656,-1.2632,-1.258,-1.2613,-1.2609,-1.26,-1.2531,-1.2517,-1.2511,-1.2476,-1.2477,-1.2475,-1.2473,-1.2472,-1.2437,-1.2437,0,0,0,0,0,0,-1.278,-1.2765,-1.2693,-1.2688,-1.2721,-1.2664,-1.2654,-1.264,-1.2581,-1.2571,-1.2601,-1.2598,-1.2522,-1.2515,-1.2508,-1.2502,-1.2474,-1.2472,-1.247,-1.2436,-1.2437,-1.2438,0,0,0,0,0,0,-1.2782,-1.2774,-1.2697,-1.2725,-1.2714,-1.2663,-1.2648,-1.2639,-1.2625,-1.2571,-1.2561,-1.2597,-1.2521,-1.2512,-1.2491,-1.2498,-1.247,-1.2468,-1.2435,-1.2436,-1.2437,-1.2492,0,0,0,0,0,0,-1.2785,-1.2775,-1.2776,-1.2726,-1.2713,-1.2683,-1.2649,-1.2638,-1.2621,-1.2616,-1.2564,-1.2555,-1.252,-1.2496,-1.2489,-1.2494,-1.2466,-1.2434,-1.2436,-1.2437,-1.2489,-1.2495,-1.2499,0,0,0,0,0,-1.2789,-1.2793,-1.2776,-1.2768,-1.2713,-1.2684,-1.2676,-1.2637,-1.2622,-1.2621,-1.2586,-1.2557,-1.2499,-1.2494,-1.2486,-1.249,-1.2433,-1.2435,-1.2437,-1.2487,-1.2494,-1.2499,0,0,0,0,0,0,-1.2843,-1.2786,-1.2766,-1.2755,-1.2725,-1.2674,-1.2672,-1.2645,-1.2618,-1.2614,-1.2564,-1.2553,-1.2538,-1.2512,-1.2507,-1.2486,-1.2462,-1.2462,-1.2503,-1.2509,-1.2514,-1.2521,-1.2464,0,0,0,0,0,-1.2855,-1.2838,-1.2788,-1.2783,-1.2769,-1.2723,-1.2709,-1.2681,-1.2647,-1.2634,-1.2598,-1.2565,-1.2539,-1.2522,-1.2496,-1.2485,-1.2472,-1.2484,-1.2489,-1.2494,-1.2494,-1.2485,-1.249,-1.2443,-1.2443,-1.2443,0,0,-1.2877,-1.2843,-1.2835,-1.2793,-1.2766,-1.2748,-1.2713,-1.2695,-1.2681,-1.263,-1.2609,-1.2582,-1.2541,-1.2525,-1.2517,-1.2503,-1.2504,-1.2496,-1.25,-1.2497,-1.2487,-1.2492,-1.2496,-1.2444,-1.2444,-1.2444,0,0,-1.2908,-1.2882,-1.2874,-1.2849,-1.281,-1.2779,-1.2778,-1.273,-1.2711,-1.2689,-1.2651,-1.2632,-1.2589,-1.2561,-1.2541,-1.2562,-1.2533,-1.2555,-1.2581,-1.2573,-1.2577,-1.258,-1.2586,-1.2589,-1.2555,-1.2555,-1.2555,0,-1.294,-1.2913,-1.2873,-1.2858,-1.284,-1.2796,-1.2787,-1.2763,-1.2717,-1.2704,-1.2691,-1.2636,-1.2605,-1.2582,-1.2587,-1.2573,-1.2568,-1.256,-1.258,-1.2582,-1.2584,-1.259,-1.2593,-1.2558,-1.2558,-1.2557,-1.2557,0,-1.2954,-1.2936,-1.2934,-1.2892,-1.2874,-1.2862,-1.2819,-1.2804,-1.2778,-1.2749,-1.2727,-1.2689,-1.2653,-1.2646,-1.2619,-1.2618,-1.2611,-1.259,-1.2565,-1.2593,-1.2597,-1.2599,-1.2562,-1.2561,-1.256,-1.256,0,0,-1.3016,-1.2954,-1.2954,-1.2934,-1.2888,-1.2872,-1.2857,-1.2825,-1.2813,-1.2782,-1.2767,-1.2732,-1.2712,-1.2689,-1.2659,-1.2653,-1.267,-1.2631,-1.2629,-1.2639,-1.2666,-1.2682,-1.2685,-1.2651,-1.2652,-1.2652,-1.2669,0,-1.304,-1.3013,-1.2977,-1.2962,-1.2944,-1.2902,-1.2889,-1.2858,-1.283,-1.2809,-1.2776,-1.2752,-1.2728,-1.2714,-1.2705,-1.267,-1.2675,-1.2669,-1.2635,-1.2635,-1.2647,-1.2688,-1.2705,-1.2723,-1.267,-1.2671,-1.2671,0,-1.3063,-1.3037,-1.3021,-1.2976,-1.2967,-1.2956,-1.2923,-1.2904,-1.2867,-1.2847,-1.2823,-1.2791,-1.2771,-1.275,-1.2721,-1.2718,-1.2702,-1.2682,-1.2682,-1.2677,-1.2654,-1.2682,-1.2727,-1.273,-1.2673,-1.2673,-1.2673,0,-1.311,-1.307,-1.3055,-1.3039,-1.2987,-1.298,-1.2958,-1.292,-1.2903,-1.2873,-1.2861,-1.2829,-1.2811,-1.2786,-1.2745,-1.2734,-1.272,-1.2696,-1.2701,-1.2702,-1.27,-1.27,-1.2742,-1.2691,-1.2691,-1.2691,-1.2691,0,-1.3139,-1.313,-1.3075,-1.3066,-1.3055,-1.3012,-1.3002,-1.2975,-1.2942,-1.2925,-1.2886,-1.2871,-1.2819,-1.2796,-1.2764,-1.2745,-1.2737,-1.2719,-1.271,-1.2722,-1.2724,-1.271,-1.2707,-1.2692,-1.2692,-1.2692,-1.2691,0,-1.3189,-1.3152,-1.3132,-1.3085,-1.3072,-1.3066,-1.3024,-1.3012,-1.2983,-1.2962,-1.2954,-1.2906,-1.2878,-1.2836,-1.2794,-1.2773,-1.2758,-1.2744,-1.2771,-1.2766,-1.2773,-1.2773,-1.2807,-1.2808,-1.2758,-1.2759,-1.2759,0,-1.3209,-1.3202,-1.3154,-1.3141,-1.3121,-1.31,-1.3083,-1.304,-1.3023,-1.2981,-1.2974,-1.2944,-1.2917,-1.2873,-1.2833,-1.2801,-1.2786,-1.28,-1.2781,-1.2793,-1.2785,-1.2786,-1.2784,-1.2804,-1.2805,-1.2806,-1.2806,0,-1.325,-1.3232,-1.321,-1.3181,-1.3161,-1.3136,-1.3108,-1.3099,-1.305,-1.3033,-1.3005,-1.2984,-1.2943,-1.2912,-1.2875,-1.2849,-1.2819,-1.2813,-1.2812,-1.2824,-1.2839,-1.283,-1.2782,-1.2812,-1.2812,-1.2811,-1.2811,-1.2811,-1.3285,-1.3276,-1.3242,-1.3217,-1.3193,-1.3168,-1.3155,-1.3124,-1.31,-1.3065,-1.3041,-1.3014,-1.2976,-1.2923,-1.2899,-1.2875,-1.2863,-1.2862,-1.2862,-1.2862,-1.2866,-1.2844,-1.2868,-1.2868,-1.2868,-1.2868,-1.2868,0,-1.3322,-1.3298,-1.3277,-1.324,-1.3221,-1.3197,-1.3165,-1.315,-1.3128,-1.3096,-1.3071,-1.3038,-1.3008,-1.2967,-1.2933,-1.2923,-1.2908,-1.2915,-1.2915,-1.2909,-1.288,-1.2883,-1.2928,-1.2928,-1.2928,-1.2928,-1.2928,-1.2928,-1.334,-1.3324,-1.3302,-1.3273,-1.3248,-1.3223,-1.3207,-1.3183,-1.3158,-1.3124,-1.31,-1.3073,-1.3037,-1.3001,-1.2971,-1.296,-1.2948,-1.296,-1.2944,-1.2917,-1.2911,-1.2906,-1.2909,-1.2958,-1.2958,-1.2975,-1.2975,-1.2975]}]]